www.pogodaiklimat.ru

Погода и климат >> Архив погоды >> Канада >> Нунавут >> Кембридж Бэй


ПОГОДА в Кембридж Бэй

  • Прогноз погоды в Кембридж Бэй
  • Монитор погоды в Кембридж Бэй

АРХИВ ПОГОДЫ в Кембридж Бэй

Время (UTC), дата Ветер
(напр.,м/с)
 
Видим.   Явления Облачность Т
(С)
Тd
(С)
f
(%)
Тe
(С)
Тes
(С)
Комфортность P
(гПа)
Po
(гПа)
Тmin
(С)
Tmax
(С)
R
(мм)
R24
(мм)
S
(см)
06 13.02 В 2 17 км ледяные иглы {снег} 4/0
[Ac trans]
-29.9 -33.8 69 -36 -36 опасность
обморожения
1008.4 1004.1 -31.4 -27.7 0.0 33
09 13.02 В 3 4000 м 1/0
[]
-30.3 -34.3 68 -39 -39 опасность
обморожения
1006.6 1002.3
12 13.02 В 3 4000 м ледяные иглы {снег} 4/0
[Ac trans]
-30.5 -34.4 69 -39 -39 опасность
обморожения
1005.3 1001.0 -30.9 -27.7 0.0 33
15 13.02 ЮВ 3 16 км 5/0
[]
-29.0 -32.8 70 -38 -38 опасность
обморожения
1004.4 1000.1
18 13.02 СВ 2 19 км ледяные иглы {снег} 4/0
[Ac trans Ci sp]
-31.4 -35.4 68 -38 -37 опасность
обморожения
1004.0 999.7 -31.4 -28.4 0.0 33
21 13.02 В 2 24 км 4/0
[]
-30.8 -34.8 68 -39 -38 опасность
обморожения
1004.1 999.8
00 14.02 СВ 2 24 км {снег} 4/0
[Ac As]
-32.6 -36.7 67 -41 -41 опасность
обморожения
1005.3 1001.0 -33.1 -28.4 0.0 33
03 14.02 СВ 3 24 км 9/9 300 м
[]
-30.2 -34.2 68 -39 -39 опасность
обморожения
1006.1 1001.8
06 14.02 СВ 2 19 км слаб. снег 10/10 300 м
[Sc]
-28.6 -32.5 69 -36 -36 опасность
обморожения
1007.3 1003.0 -33.1 -28.4 0.0 33
09 14.02 СВ 3 16 км 10/10 300 м
[]
-27.9 -31.7 70 -36 -36 опасность
обморожения
1009.5 1005.2
12 14.02 СВ 2 19 км слаб. снег 6/3 600 м
[Sc Ac As]
-28.2 -32.0 70 -34 -34 опасность
обморожения
1011.5 1007.2 -33.0 -28.4 0.2 33
15 14.02 С 2 24 км 6/6 600 м
[]
-29.2 -33.2 68 -35 -35 опасность
обморожения
1013.7 1009.4
18 14.02 С 1 8000 м слаб. снег 10/10 100 м
[Sc]
-26.4 -30.1 71 -27 -27 1016.1 1011.8 -33.1 -26.0 0.0 33
21 14.02 С 6 8000 м 10/10 100 м
[]
-21.1 -24.4 75 -32 -32 опасность
обморожения
1018.3 1014.0
00 15.02 С 8 3200 м слаб. снег 10/10 100 м
[Sc]
-20.4 -23.7 75 -33 -33 опасность
обморожения
1020.8 1016.5 -30.0 -19.8 0.0 33
03 15.02 С 9 8000 м 10/10 600 м
[]
-23.9 -27.6 71 -38 -38 опасность
обморожения
1023.1 1018.8
06 15.02 С 7 19 км ледяные иглы {снег} 3/1 600 м
[Sc Ci fib]
-28.8 -32.8 68 -43 -43 опасность
обморожения
1025.0 1020.6 -30.0 -19.8 0.0 11
09 15.02 С 8 19 км 1/1 600 м
[]
-30.3 -34.5 67 -46 -46 опасность
обморожения
1026.5 1022.1
12 15.02 С 6 19 км ледяные иглы {снег} 3/1 600 м
[Sc Ac trans]
-31.8 -36.1 66 -46 -46 опасность
обморожения
1028.5 1024.1 -32.1 -19.8 0.0 33
15 15.02 С 6 19 км 5/5 100 м
[]
-30.9 -35.2 66 -44 -44 опасность
обморожения
1030.2 1025.8
18 15.02 СЗ 1 19 км ледяные иглы {снег} 4/3 100 м
[Sc Ac trans]
-32.7 -36.9 66 -37 -37 опасность
обморожения
1032.1 1027.7 -33.4 -28.8 0.0 33
21 15.02 С 3 19 км 9/9 1500 м
[]
-31.1 -35.6 64 -40 -40 опасность
обморожения
1033.4 1029.0
00 16.02 С 4 24 км {снег} 5/5 300 м
[Sc Ac trans]
-32.9 -37.6 63 -44 -44 опасность
обморожения
1034.9 1030.5 -33.4 -30.8 0.0 33
03 16.02 СЗ 1 24 км 1/1 300 м
[]
-33.2 -38.1 61 -38 -38 опасность
обморожения
1036.5 1032.1
06 16.02 СЗ 5 24 км {снег} 1/0 2000 м
[Ac As]
-35.1 -39.7 63 -48 -48 опасность
обморожения
1037.1 1032.6 -35.8 -28.8 0.0 91
09 16.02 СЗ 4 24 км 3/3 1000 м
[]
-33.0 -37.4 65 -44 -44 опасность
обморожения
1038.3 1033.9
12 16.02 СЗ 5 24 км 4/4 1000 м
[Sc]
-33.0 -37.4 65 -46 -46 опасность
обморожения
1039.6 1035.1 -35.8 -28.8 33
15 16.02 СЗ 7 24 км 5/5 1000 м
[]
-33.3 -37.8 64 -49 -49 опасность
обморожения
1040.3 1035.8
18 16.02 СЗ 6 24 км позёмок 3/1 1000 м
[Sc Ac trans]
-33.3 -37.9 63 -48 -48 опасность
обморожения
1041.1 1036.6 -35.8 -31.9
21 16.02 СЗ 7 24 км 9/9 600 м
[]
-31.3 -35.9 64 -46 -46 опасность
обморожения
1041.7 1037.2
00 17.02 З 6 24 км позёмок 6/1 300 м
[Sc Ac trans]
-32.7 -37.3 63 -47 -47 опасность
обморожения
1042.5 1038.0 -35.1 -30.8
03 17.02 СЗ 6 24 км 4/0
[]
-34.9 -39.3 64 -49 -49 опасность
обморожения
1042.4 1037.9
06 17.02 З 5 24 км 1/0
[Ac As]
-34.3 -38.7 64 -48 -48 опасность
обморожения
1042.4 1037.9 -35.1 -30.8 171
09 17.02 СЗ 6 24 км ясно -34.1 -38.4 65 -49 -49 опасность
обморожения
1042.4 1037.9
12 17.02 З 5 17 км ледяные иглы {снег} ясно -35.0 -39.3 65 -48 -48 опасность
обморожения
1041.6 1037.1 -35.5 -30.8 0.0 33
15 17.02 З 3 20 км 1/0
[]
-36.4 -40.8 64 -47 -47 опасность
обморожения
1041.2 1036.7
18 17.02 З 5 24 км ледяные иглы {снег} 1/0
[Ac trans]
-36.0 -40.5 63 -50 -49 опасность
обморожения
1039.6 1035.1 -36.5 -32.8 0.0 33
21 17.02 З 5 24 км 1/0
[]
-34.3 -39.2 61 -48 -48 опасность
обморожения
1037.8 1033.3
00 18.02 З 4 24 км ледяные иглы {снег} 1/0
[Ac trans]
-34.0 -38.3 65 -46 -46 опасность
обморожения
1035.3 1030.8 -36.5 -33.5 0.0 33
03 18.02 ЮВ 2 24 км 1/0
[]
-35.4 -39.6 65 -42 -42 опасность
обморожения
1032.6 1028.1
06 18.02 С 1 19 км ледяные иглы {снег} 1/0
[Ac trans]
-35.9 -39.9 66 -37 -37 опасность
обморожения
1029.8 1025.3 -37.0 -32.8 0.0 9
09 18.02 В 1 19 км 5/0
[]
-36.2 -40.3 66 -41 -41 опасность
обморожения
1026.5 1022.1
12 18.02 СВ 3 19 км ледяные иглы {снег} 5/0
[Ac trans]
-37.4 -41.7 64 -49 -49 опасность
обморожения
1023.5 1019.1 -38.0 -32.8 0.0 33
15 18.02 СВ 3 24 км 4/4 1000 м
[]
-37.0 -41.3 64 -47 -47 опасность
обморожения
1021.3 1016.9
18 18.02 СВ 4 24 км {снег} 4/1 1000 м
[Sc Ac trans]
-37.5 -41.9 63 -50 -49 опасность
обморожения
1019.6 1015.2 -38.7 -34.7 0.0 33
21 18.02 В 3 24 км 4/0
[]
-36.0 -40.3 64 -47 -47 опасность
обморожения
1018.1 1013.7
00 19.02 СВ 3 24 км 3/0
[Ac trans]
-37.3 -41.7 63 -47 -47 опасность
обморожения
1017.2 1012.8 -38.7 -34.9
03 19.02 СВ 1 24 км 5/0
[]
-37.1 -41.5 63 -42 -42 опасность
обморожения
1015.9 1011.5
06 19.02 СВ 4 24 км 5/0
[Ac trans]
-38.3 -42.8 62 -51 -51 опасность
обморожения
1014.9 1010.5 -38.9 -34.7
09 19.02 СВ 3 24 км 5/0
[]
-38.9 -43.4 62 -49 -49 опасность
обморожения
1014.2 1009.8
12 19.02 СВ 3 16 км ледяные иглы {снег} 3/0
[Ac trans]
-38.6 -43.1 62 -49 -49 опасность
обморожения
1013.6 1009.2 -39.3 -34.7 0.0 33
15 19.02 СВ 3 12 км 1/0
[]
-39.7 -44.3 61 -51 -51 опасность
обморожения
1013.4 1009.0
18 19.02 СВ 4 24 км ледяные иглы {снег} ясно -38.6 -43.1 62 -51 -51 опасность
обморожения
1014.3 1009.9 -39.8 -36.7 0.0 33
21 19.02 СВ 3 24 км ясно -37.4 -41.9 63 -49 -48 опасность
обморожения
1015.2 1010.8
00 20.02 С 2 24 км ледяные иглы {снег} ясно -37.1 -41.6 63 -46 -46 опасность
обморожения
1016.3 1011.9 -39.8 -35.6 0.0 33
03 20.02 СВ 2 24 км ясно -38.1 -42.6 62 -47 -47 опасность
обморожения
1017.8 1013.4

 

Местоположение метеостанции Кембридж Бэй (Нунавут, Канада): широта 69.10 долгота -105.10 высота над уровнем моря 27 м.

В архиве по умолчанию представлена погода в Кембридж Бэй за последнюю неделю. Архивные данные за месяц целиком и за предыдущие месяцы, начиная с января 2011 года, Вы можете получить, выбрав интересующий диапазон дат из раскрывающегося списка и нажав кнопку "Ввод!".


*Определитесь, кто Вы:
робот инопланетянин человек

Внимание! Время в таблицах - всемирное. Для получения местного времени необходимо прибавить поправку, которая равна -7 ч.

Смотрите также архив погоды в соседних городах и на ближайших метеорологических станциях:

Погода на Мысе Пил-Вест (Нунавут, Канада) (108 км)
Погода на Острове Хат (Нунавут, Канада) (223 км)
Погода в Джойа Хейвен (Нунавут, Канада) (374 км)
Погода в Куглуктуке (Нунавут, Канада) (432 км)
Погода в Куглуктуке (Северо-Западные территории, Канада) (432 км)
Погода в Люпине (Нунавут, Канада) (452 км)
Погода в Саскатуне (Саскачеван, Канада) (452 км)
Погода в Талойоаке (Нунавут, Канада) (454 км)
Погода на Озере Робертсон (Нунавут, Канада) (460 км)
Погода в Шеперд-Бее (Нунавут, Канада) (466 км)

Пояснения к столбцам:

Ветер - указаны скорость ветра в м/с - средняя за 10 мин, порывы в срок и между сроками (в фигурных скобках) и направление, откуда дует ветер: С - северный, СВ - северо-восточный, В - восточный, ЮВ - юго-восточный, Ю - южный, ЮЗ - юго-западный, З - западный, СЗ - северо-западный.
Видимость - горизонтальная дальность видимости в метрах или километрах. При видимости от 1 до 10 км при отсутствии осадков обычно наблюдается дымка, при ухудшении видимости до 1 км и менее - туман. В сухую погоду видимость может ухудшаться дымом, пылью или мглою.
Явления - указаны атмосферные явления, наблюдавшиеся в срок или в последний час перед сроком; фигурными скобками обозначены явления, наблюдавшиеся между сроками (за 1-3 часа до срока); квадратными скобками обозначены град или гололедные отложения с указанием их диаметра в мм.
Облачность - указаны через наклонную черту общая и нижняя облачность в баллах и высота нижней границы облаков в метрах; квадратными скобками обозначены формы облаков: Ci - перистые, Cs - перисто-слоистые, Cc - перисто-кучевые, Ac - высококучевые, As - высокослоистые, Sc - слоисто-кучевые, Ns - слоисто-дождевые, Cu - кучевые, Cb - кучево-дождевые. Подробнее классификацию облаков см. в Атласе облаков (PDF).
T - Температура воздуха - температура, измеренная на высоте 2 м над землей.
Td - Температура точки росы - температура, при понижении до которой содержащийся в воздухе водяной пар достигнет насыщения.
f - Относительная влажность воздуха - влажноcть воздуха, измеренная на высоте 2 м над землей.
Te - Эффективная температура - температура, которую ощущает одетый по сезону человек в тени. Характеристика душности погоды. При расчете учитывается влияние влажности воздуха и скорости ветра на теплоощущения человека.
Tes - Эффективная температура на солнце - температура, которую ощущает человек, с поправкой на солнечный нагрев. Характеристика знойности погоды. Зависит от высоты солнца над горизонтом, облачности и скорости ветра. Ночью, в пасмурную погоду, а также при ветре 12 м/с и более поправка равна нулю.
P - Атмосферное давление - приведенное к уровню моря атмосферное давление.
Po - Атмосферное давление - измеренное на уровне метеостанции атмосферное давление.
Tmin - Минимальная температура - минимум температуры воздуха на высоте 2 м над землей.
Tmax - Максимальная температура - максимум температуры воздуха на высоте 2 м над землей.
R - Количество осадков - Количество выпавших осадков за период времени, мм. При наведении курсора мыши на число - период времени, за который выпало указанное количество осадков.
R24 - Количество осадков - Количество выпавших осадков за 24 часа, мм.
S - Снежный покров - Высота снежного покрова, см. При наведении курсора мыши на число - состояние снежного покрова и степень покрытия местности в баллах.